Weather History for Arlington, TX

Change the Weather History Date:

Friday, February 28, 2014

  Actual Average (KRBD) Record (KRBD)
Temperature  
Mean Temperature 62 °F -  
Max Temperature 82 °F 58 °F 82 °F (2014)
Min Temperature 43 °F 40 °F 26 °F (2002)
Degree Days  
Heating Degree Days 2    
Growing Degree Days 12 (Base 50)    
Moisture  
Dew Point 36 °F    
Average Humidity 48    
Maximum Humidity 76    
Minimum Humidity 13    
Precipitation  
Precipitation 0.00 in - - ()
Sea Level Pressure  
Sea Level Pressure 29.74 in    
Wind  
Wind Speed 13 mph (South)    
Max Wind Speed 18 mph    
Max Gust Speed 26 mph    
Visibility 10 miles    
Events      
Averages and records for this station are not official NWS values.
T = Trace of Precipitation, MM = Missing Value Source: NWS Daily Summary

Daily Weather History Graph

Daily Weather History Graph

Search for Another Location

Airport:

Trip Planner

Search our weather history database for the weather conditions in past years. The results will help you decide how hot, cold, wet, or windy it might be!

Date:

Astronomy

Feb. 28, 2014 Rise Set
Actual Time 6:57 AM CST 6:24 PM CST
Civil Twilight 6:32 AM CST 6:49 PM CST
Nautical Twilight 6:03 AM CST 7:18 PM CST
Astronomical Twilight 5:35 AM CST 7:46 PM CST
Moon 6:12 AM CST 6:02 PM CST
Length of Visible Light 12h 17m
Length of Day
11h 27m
Waning Crescent, 1% of the Moon is Illuminated
Feb 28
Waning Crescent
Mar 1
New
Mar 8
First Quarter
Mar 16
Full
Mar 23
Last Quarter

Hourly Weather History & Observations

Time (CST) Temp. Windchill Dew Point Humidity Pressure Visibility Wind Dir Wind Speed Gust Speed Precip Events Conditions
12:53 AM 46.0 °F 40.2 °F 30.9 °F 56% 29.84 in 10.0 mi SSE 12.7 mph 20.7 mph N/A   Clear
1:53 AM 45.0 °F 38.5 °F 30.9 °F 58% 29.82 in 10.0 mi SSE 13.8 mph 20.7 mph N/A   Clear
2:53 AM 45.0 °F 38.9 °F 32.0 °F 60% 29.79 in 10.0 mi SSE 12.7 mph - N/A   Clear
3:53 AM 44.1 °F 36.8 °F 33.1 °F 65% 29.76 in 10.0 mi SSE 16.1 mph 21.9 mph N/A   Clear
4:53 AM 44.1 °F 36.2 °F 34.0 °F 68% 29.73 in 10.0 mi SSE 18.4 mph 26.5 mph N/A   Clear
5:53 AM 43.0 °F 36.0 °F 35.1 °F 74% 29.75 in 10.0 mi SSE 13.8 mph 23.0 mph N/A   Clear
6:53 AM 43.0 °F 36.0 °F 36.0 °F 76% 29.77 in 10.0 mi South 13.8 mph 21.9 mph N/A   Clear
7:53 AM 44.1 °F 37.4 °F 37.0 °F 76% 29.77 in 10.0 mi South 13.8 mph 25.3 mph N/A   Clear
8:53 AM 46.9 °F - 37.9 °F 71% 29.77 in 10.0 mi South 18.4 mph 24.2 mph N/A   Clear
9:53 AM 53.1 °F - 39.9 °F 61% 29.76 in 10.0 mi South 12.7 mph 24.2 mph N/A   Clear
10:53 AM 59.0 °F - 39.9 °F 49% 29.73 in 10.0 mi South 15.0 mph 23.0 mph N/A   Clear
11:53 AM 66.0 °F - 41.0 °F 40% 29.72 in 10.0 mi South 12.7 mph 21.9 mph N/A   Clear
12:53 PM 71.1 °F - 42.1 °F 35% 29.69 in 10.0 mi SSE 13.8 mph 20.7 mph N/A   Clear
1:53 PM 80.1 °F - 34.0 °F 19% 29.66 in 10.0 mi SW 8.1 mph 19.6 mph N/A   Clear
2:53 PM 82.0 °F - 32.0 °F 16% 29.66 in 10.0 mi WSW 12.7 mph 21.9 mph N/A   Clear
3:53 PM 82.9 °F - 28.9 °F 14% 29.65 in 10.0 mi West 16.1 mph 21.9 mph N/A   Clear
4:53 PM 82.9 °F - 27.0 °F 13% 29.66 in 10.0 mi WSW 8.1 mph 16.1 mph N/A   Clear
5:53 PM 81.0 °F - 25.0 °F 13% 29.67 in 10.0 mi WSW 8.1 mph - N/A   Clear
6:53 PM 73.0 °F - 27.0 °F 18% 29.70 in 10.0 mi SSW 3.5 mph - N/A   Clear
7:53 PM 62.1 °F - 30.9 °F 31% 29.73 in 10.0 mi Calm Calm - N/A   Partly Cloudy
8:53 PM 64.9 °F - 48.0 °F 54% 29.76 in 10.0 mi SSE 10.4 mph - N/A   Scattered Clouds
9:53 PM 64.9 °F - 50.0 °F 58% 29.78 in 10.0 mi SSE 6.9 mph - N/A   Overcast
10:53 PM 63.0 °F - 51.1 °F 65% 29.79 in 10.0 mi SSE 10.4 mph - N/A   Overcast
11:53 PM 62.1 °F - 51.1 °F 67% 29.80 in 10.0 mi SSE 8.1 mph - N/A   Overcast